Regional Weather Roundup
Issued by NWS Wilmington, NC

Home | Current Version | Previous Version | Text Only | Print | Product List | Glossary On
Versions: 1 2 3 4 5 6 7 8 9 10 11 12 13 14 15 16 17 18 19 20 21 22 23 24 25 26 27 28 29 30 31 32 33 34 35 36 37 38 39 40 41 42 43 44 45 46 47 48 49 50
000
ASUS42 KILM 270910
RWRILM
RWRILM
REGIONAL HOURLY WEATHER ROUNDUP
NATIONAL WEATHER SERVICE WILMINGTON NC
400 AM EST SAT DEC 27 2014

NOTE: "FAIR" INDICATES FEW OR NO CLOUDS BELOW 12,000 FEET WITH NO
SIGNIFICANT WEATHER AND/OR OBSTRUCTIONS TO VISIBILITY.

...............WFO WILMINGTON COUNTY WARNING AREA...............

......COASTAL NC AND SC COUNTIES......

CITY           SKY/WX    TMP DP  RH WIND       PRES   REMARKS
WILMINGTON     CLEAR     36  34  92 CALM      30.29F
SOUTHPORT      CLEAR     38  37  96 CALM      30.29F
N MYRTLE BEACH CLEAR     36  35  96 CALM      30.29S FOG
MYRTLE BEACH   CLEAR     39  36  87 CALM      30.29F

......INLAND NC AND SC COUNTIES.......

CITY           SKY/WX    TMP DP  RH WIND       PRES   REMARKS
LUMBERTON      PTCLDY    34  32  92 CALM      30.30S
ELIZABETHTOWN  CLEAR     33  33  99 CALM      30.30S
WHITEVILLE     CLEAR     35  34  96 CALM      30.30R
FLORENCE       CLEAR     36  33  89 CALM      30.31R
DARLINGTON     CLEAR     34  28  80 NW3       30.32S

....................REST OF NORTH CAROLINA......................

.........EASTERN NC.........

CITY           SKY/WX    TMP DP  RH WIND       PRES   REMARKS
CAPE HATTERAS  PTCLDY    38  38 100 N5        30.30S WCI  34
JACKSONVILLE   CLEAR     30  28  93 CALM      30.30F
MOREHEAD CITY  CLEAR     36  35  96 CALM      30.30F
KENANSVILLE    CLEAR     31  31 100 CALM      30.31F
NEW BERN       PTCLDY    34  30  85 CALM      30.31F
ELIZABETH CITY CLEAR     37  34  89 CALM      30.29S

.........CENTRAL NC.........

CITY           SKY/WX    TMP DP  RH WIND       PRES   REMARKS
RALEIGH DURHAM MOCLDY    33  30  88 CALM      30.28F
ROCKY MOUNT    CLEAR     34  32  92 CALM      30.28F
ROANOKE RAPIDS NOT AVBL
FAYETTEVILLE   CLEAR     35  32  88 CALM      30.29F
HOFFMAN        PTCLDY    29  28  96 W1        30.31S

.........WESTERN NC.........

CITY           SKY/WX    TMP DP  RH WIND       PRES   REMARKS
CHARLOTTE      MOCLDY    36  33  89 CALM      30.30R
GREENSBORO     PTCLDY    36  31  82 SW7       30.25F WCI  30
HICKORY        NOT AVBL
BOONE          NOT AVBL
ASHEVILLE      NOT AVBL

.....................REST OF SOUTH CAROLINA.....................

.........EASTERN SC.........

CITY           SKY/WX    TMP DP  RH WIND       PRES   REMARKS
CHARLESTON     CLEAR     41  40  96 CALM      30.28F
BEAUFORT MCAS  CLEAR     44  42  93 N5        30.28S
HILTON HEAD    CLEAR     46  46 100 CALM      30.28F

.........CENTRAL SC.........

CITY           SKY/WX    TMP DP  RH WIND       PRES   REMARKS
COLUMBIA       CLEAR     32  28  85 W3        30.30S
ORANGEBURG     CLEAR     36  33  89 CALM      30.29F
SUMTER SHAW    PTCLDY    33  31  91 CALM      30.28F

.........WESTERN SC.........

CITY           SKY/WX    TMP DP  RH WIND       PRES   REMARKS
GREENVILLE     NOT AVBL
ROCK HILL      PTCLDY    31  30  96 CALM      30.30S
ANDERSON       CLEAR     35  32  88 CALM      30.28F
CLEMSON        NOT AVBL
GREENWOOD      PTCLDY    31  29  92 CALM      30.31F


...................COASTAL AND OFFSHORE REPORTS..................

................LOCAL PIERS AND NC RESERVE................


STATION/POSITION TIME  SKY/WX   TEMP    WIND        PRES    VSBY
                                AIR SEA DIR/SP/G
                 (UTC)          (F)     (DEG/KT/KT) (MB)    (MI)
JOHNY MRCER PIER 0900            45 56  320/  6/  6 1025.0F
NC RESRV MASNBRO 0800            42     310/  2     1026.0S
OCEAN CREST PIER 0900            49 55  360/  7/  7 1024.8F
SPRINGMAID  PIER 0900            43 53  330/  6/  7 1025.5S


................COASTAL AND OFFSHORE BUOYS................


STATION/POSITION TIME  SKY/WX   TEMP    WIND        PRES    VSBY
                                AIR SEA DIR/SP/G
                 (UTC)          (F)     (DEG/KT/KT) (MB)    (MI)
DIMNDSHOAL 41025 0900            56                 1025.8F
WVE H/P(F/S)=  2/12

CAPE LOOKOUT     0900            52     360/  7/  7 1025.5F
ONSLOW BAY 41036 0800            58 60  360/  4/  6 1026.1F
5 WRITEBCH 41038 NOT AVBL
MASONBORO  41110 0900               53                N/A
WVE H/P(F/S)=  2/13 WND WVE H/P(F/S)=  2/ 7

WILM HARBR 41108 0900               57                N/A
WVE H/P(F/S)=  1/13 WND WVE H/P(F/S)=  2/ 7

27WRITEBCH 41037 0800            54 60   40/  4/  6 1026.8F
FRYING PAN 41013 0900            60 69  360/  6/  8 1025.9F
WVE H/P(F/S)=  2/13 SWL H/P/D(F/S/D)=  2/140/13

SUNST NRSH 41024 0800            49      10/  6/  6   N/A
CAPRS NRSH 41029 0800            54      40/  8/ 10   N/A
EDISTO     41004 0900            64 74   20/ 12/ 14 1024.6F
WVE H/P(F/S)=  2/ 8 WND WVE H/P(F/S)=  2/ 3 SWL H/P/D(F/S/D)=  2/ 8



..........OFFSHORE BUOYS BEYOND 100 NM OFFSHORE...........
.....IN A TRIANGLE---HAT TO BERMUDA TO BAHAMAS TO HAT.....


STATION/POSITION TIME  SKY/WX   TEMP    WIND        PRES    VSBY
                                AIR SEA DIR/SP/G
                 (UTC)          (F)     (DEG/KT/KT) (MB)    (MI)
150E HAT   41001 NOT AVBL
W BERMUDA  41048 0820            68 73   80/  2/  6 1023.7F
WVE H/P(F/S)=  7/15 WND WVE H/P(F/S)=  2/ 4 SWL H/P/D(F/S/D)=  7/ 70/15

ATLANTIC S 41049 0836            72 77   30/ 16/ 19 1018.4F
WVE H/P(F/S)= 10/15 WND WVE H/P(F/S)=  5/ 6 SWL H/P/D(F/S/D)=  8/ 50/15

E BAHAMAS  41046 0801            76 79   20/  6/ 10 1019.3
WVE H/P(F/S)=  5/11 WND WVE H/P(F/S)=  2/ 4 SWL H/P/D(F/S/D)=  5/ 60/11

NE BAHAMAS 41047 0800            75 78   60/ 14/ 17 1021.4R
WVE H/P(F/S)=  5/13 WND WVE H/P(F/S)=  3/ 5 SWL H/P/D(F/S/D)=  3/ 70/13

120E CANVRL41010 0900            74 77   70/ 10/ 12 1022.6S
WVE H/P(F/S)=  3/14 WND WVE H/P(F/S)=  2/ 5 SWL H/P/D(F/S/D)=  2/ 90/14


END


USA.gov is the U.S. government's official web portal to all federal, state and local government web resources and services.